Powrót do katalogu

STARLINK-3841

AktywnyŁącznośćVLEO
NORAD 52369·PAYLOAD·🇺🇸 United States

Wystrzelony Apr 29, 2022 z Cape Canaveral Space Force Station

Loading…

Następne Przeloty (najbliższe 24 godziny)

TLE

ŚwieżeSource: CelesTrak SupGP

Epoka: Sep 15, 2026, 02:33 UTC

1 52369C 22045AQ  26258.10673611 -.00037800  00000+0 -10811-2 0  2586
2 52369  53.1592  50.6422 0001054  92.3904 249.6131 15.35428443    14

Śledź STARLINK-3841 w czasie rzeczywistym z AllMySat

Download on the App Store